This is the latest recevied weather packets stored in our database for station/object vk4zu-13. If no packets are shown the sender has not sent any weather packets the latest 10 day(s).
| Time | Temp. | Humidity | Pressure | Rain* | Wind** | Luminosity | Snow |
|---|---|---|---|---|---|---|---|
| 1777416566 | 22.22° C | 77% | 1025 hPa | 0 mm | - | 116 W/m² | - |
| 1777416494 | 22.22° C | 74% | 1025 hPa | 0 mm | - | 193 W/m² | - |
| 1777416425 | 22.22° C | 74% | 1024.9 hPa | 0 mm | - | 455 W/m² | - |
| 1777416360 | 22.22° C | 73% | 1024.9 hPa | 0 mm | - | 455 W/m² | - |
| 1777416286 | 22.22° C | 74% | 1024.9 hPa | 0 mm | - | 455 W/m² | - |
| 1777416217 | 22.22° C | 75% | 1024.9 hPa | 0 mm | - | 455 W/m² | - |
| 1777416149 | 22.22° C | 76% | 1024.9 hPa | 0 mm | - | 406 W/m² | - |
| 1777416082 | 22.22° C | 75% | 1024.8 hPa | 0 mm | - | 439 W/m² | - |
| 1777416017 | 22.22° C | 77% | 1024.9 hPa | 0 mm | - | 399 W/m² | - |
| 1777415944 | 21.67° C | 77% | 1024.9 hPa | 0 mm | - | 434 W/m² | - |
| 1777415880 | 21.67° C | 76% | 1024.9 hPa | 0 mm | - | 434 W/m² | - |
| 1777415817 | 21.67° C | 78% | 1025 hPa | 0 mm | - | 425 W/m² | - |
| 1777415757 | 21.67° C | 77% | 1024.9 hPa | 0 mm | - | 425 W/m² | - |
| 1777415696 | 21.67° C | 79% | 1025 hPa | 0 mm | - | 427 W/m² | - |
| 1777415636 | 21.67° C | 80% | 1024.9 hPa | 0 mm | - | 424 W/m² | - |
| 1777415567 | 21.67° C | 80% | 1024.9 hPa | 0 mm | - | 411 W/m² | - |
| 1777415498 | 21.11° C | 81% | 1024.8 hPa | 0 mm | - | 403 W/m² | - |
| 1777415435 | 21.11° C | 79% | 1024.8 hPa | 0 mm | - | 396 W/m² | - |
| 1777415360 | 21.11° C | 81% | 1024.9 hPa | 0 mm | - | 392 W/m² | - |
| 1777415293 | 20.56° C | 80% | 1024.8 hPa | 0 mm | - | 385 W/m² | - |
| 1777415227 | 20.56° C | 80% | 1024.8 hPa | 0 mm | - | 381 W/m² | - |
| 1777415167 | 20.56° C | 81% | 1024.8 hPa | 0 mm | - | 380 W/m² | - |
| 1777415107 | 20.56° C | 84% | 1024.9 hPa | 0 mm | - | 378 W/m² | - |
| 1777415038 | 20.56° C | 84% | 1024.7 hPa | 0 mm | - | 373 W/m² | - |
| 1777414968 | 20.56° C | 84% | 1024.8 hPa | 0 mm | - | 369 W/m² | - |
* Rain latest hour (hover to see other rain measurements)
** Current wind speed in m/s (hover to see current wind gust speed)